Location: Casalecchio di Reno
(44.4760°N, 11.2757°E)
Time: 17:00:48
(UTC+02:00)

DX 1 - Pass Details

Date: 22 June 2024
Orbit: 607 x 619 km, 98.3° (Epoch: 19 July)

Event Time Altitude Azimuth Distance (km) Brightness Sun altitude
Rises 02:37:58 0° 358° (N) 2,878 ? -19.6°
Reaches altitude 10° 02:40:45 10° 338° (NNW) 1,968 ? -19.4°
Maximum altitude 02:43:33 17° 297° (WNW) 1,541 ? -19.3°
Enters shadow 02:45:16 14° 269° (W) 1,713 ? -19.2°
